Weather History for Scottsboro, AL

Change the Weather History Date:

Thursday, November 8, 2012

  Actual Average (KHSV) Record (KHSV)
Temperature  
Mean Temperature 46 °F 55 °F  
Max Temperature 59 °F 67 °F 83 °F (2005)
Min Temperature 32 °F 44 °F 24 °F (1976)
Degree Days  
Heating Degree Days 20 10  
Month to date heating degree days 72  
Since 1 July heating degree days 223  
Cooling Degree Days 0 0  
Month to date cooling degree days 7  
Year to date cooling degree days 1947  
Moisture  
Dew Point 37 °F    
Average Humidity 76    
Maximum Humidity 100    
Minimum Humidity 45    
Precipitation  
Precipitation 0.00 in 0.14 in 2.92 in (2000)
Month to date precipitation 1.16  
Year to date precipitation 44.79  
Snow  
Snow 0.00 in - - ()
Month to date snowfall  
Since 1 July snowfall  
Since 1 September snowfall  
Snow Depth -    
Sea Level Pressure  
Sea Level Pressure 30.20 in    
Wind  
Wind Speed - (North)    
Max Wind Speed -    
Max Gust Speed -    
Visibility 3 miles    
Events      
T = Trace of Precipitation, MM = Missing Value Source: NWS Daily Summary

Daily Weather History Graph

Daily Weather History Graph

Search for Another Location

Airport:

Trip Planner

Search our weather history database for the weather conditions in past years. The results will help you decide how hot, cold, wet, or windy it might be!

Date:

Astronomy

Nov. 08, 2012 Rise Set
Actual Time 6:11 AM CST 4:43 PM CST
Civil Twilight 5:45 AM CST 5:10 PM CST
Nautical Twilight 5:14 AM CST 5:40 PM CST
Astronomical Twilight 4:45 AM CST 6:09 PM CST
Moon 12:20 AM CST (11/8) 1:11 PM CST (11/8)
Length of Visible Light 11h 24m
Length of Day
10h 32m
Waning Crescent, 32% of the Moon is Illuminated
Nov 8
Waning Crescent
Nov 13
New
Nov 20
First Quarter
Nov 28
Full
Dec 6
Last Quarter

Hourly Weather History & Observations

Time (CST) Temp. Dew Point Humidity Pressure Visibility Wind Dir Wind Speed Gust Speed Precip Events Conditions
12:15 AM 39.2 °F 37.4 °F 93% 30.12 in 3.0 mi North - - N/A   Clear
12:35 AM 39.2 °F 37.4 °F 93% 30.13 in 3.0 mi North - - N/A   Clear
12:55 AM 37.4 °F 35.6 °F 93% 30.13 in 3.0 mi North - - N/A   Clear
1:15 AM 37.4 °F 35.6 °F 93% 30.13 in 3.0 mi North - - N/A   Clear
1:55 AM 37.4 °F 35.6 °F 93% 30.15 in 3.0 mi North - - N/A   Partly Cloudy
2:15 AM 37.4 °F 35.6 °F 93% 30.15 in 3.0 mi North - - N/A   Mostly Cloudy
2:35 AM 37.4 °F 35.6 °F 93% 30.16 in 3.0 mi North - - N/A   Mostly Cloudy
2:55 AM 37.4 °F 35.6 °F 93% 30.16 in 3.0 mi North - - N/A   Partly Cloudy
3:15 AM 35.6 °F 35.6 °F 100% 30.16 in 2.5 mi North - - N/A   Clear
3:35 AM 35.6 °F 33.8 °F 93% 30.17 in 2.5 mi North - - N/A   Clear
3:55 AM 35.6 °F 33.8 °F 93% 30.17 in 2.5 mi North - - N/A   Clear
4:15 AM 35.6 °F 33.8 °F 93% 30.17 in 2.5 mi North - - N/A   Clear
4:35 AM 35.6 °F 32.0 °F 87% 30.18 in 2.0 mi North - - N/A   Clear
5:15 AM 33.8 °F 32.0 °F 93% 30.19 in 2.0 mi North - - N/A   Clear
5:55 AM 32.0 °F 32.0 °F 100% 30.21 in 2.0 mi North - - N/A   Clear
6:15 AM 32.0 °F 32.0 °F 100% 30.21 in 1.2 mi North - - N/A   Clear
6:35 AM 32.0 °F 32.0 °F 100% 30.22 in 1.2 mi North - - N/A   Clear
6:55 AM 33.8 °F 32.0 °F 93% 30.22 in 1.8 mi North - - N/A   Clear
7:15 AM 35.6 °F 32.0 °F 87% 30.23 in 1.8 mi North - - N/A   Clear
7:55 AM 41.0 °F 37.4 °F 87% 30.25 in 1.5 mi North - - N/A   Clear
8:15 AM 42.8 °F 39.2 °F 87% 30.25 in 1.8 mi North - - N/A   Clear
8:35 AM 44.6 °F 39.2 °F 81% 30.25 in 2.0 mi North - - N/A   Haze
8:55 AM 44.6 °F 39.2 °F 81% 30.25 in 2.5 mi North - - N/A   Haze
9:15 AM 46.4 °F 39.2 °F 76% 30.25 in 2.5 mi North - - N/A   Haze
9:55 AM 48.2 °F 39.2 °F 71% 30.25 in 2.5 mi North - - N/A   Haze
10:15 AM 50.0 °F 39.2 °F 66% 30.24 in 2.5 mi North - - N/A   Haze
10:35 AM 51.8 °F 37.4 °F 58% 30.24 in 2.5 mi North - - N/A   Haze
10:55 AM 53.6 °F 37.4 °F 54% 30.23 in 3.0 mi North - - N/A   Haze
11:15 AM 53.6 °F 37.4 °F 54% 30.22 in 3.0 mi North - - N/A   Haze
11:35 AM 55.4 °F 37.4 °F 51% 30.21 in 3.0 mi North - - N/A   Haze
11:55 AM 55.4 °F 37.4 °F 51% 30.20 in 3.0 mi North - - N/A   Haze
12:15 PM 55.4 °F 37.4 °F 51% 30.20 in 3.0 mi North - - N/A   Haze
12:35 PM 57.2 °F 37.4 °F 48% 30.19 in 3.0 mi North - - N/A   Haze
12:55 PM 59.0 °F 37.4 °F 45% 30.19 in 3.0 mi North - - N/A   Haze
1:15 PM 59.0 °F 39.2 °F 48% 30.18 in 3.0 mi North - - N/A   Haze
1:35 PM 59.0 °F 37.4 °F 45% 30.17 in 4.0 mi North - - N/A   Haze
1:55 PM 59.0 °F 37.4 °F 45% 30.17 in 3.0 mi North - - N/A   Haze
2:15 PM 59.0 °F 39.2 °F 48% 30.17 in 3.0 mi North - - N/A   Haze
2:35 PM 59.0 °F 39.2 °F 48% 30.17 in 3.0 mi North - - N/A   Haze
2:55 PM 59.0 °F 39.2 °F 48% 30.17 in 3.0 mi North - - N/A   Haze
3:15 PM 59.0 °F 39.2 °F 48% 30.17 in 3.0 mi North - - N/A   Haze
3:35 PM 59.0 °F 39.2 °F 48% 30.18 in 3.0 mi North - - N/A   Haze
3:55 PM 59.0 °F 39.2 °F 48% 30.18 in 3.0 mi North - - N/A   Haze
4:15 PM 57.2 °F 39.2 °F 51% 30.18 in 3.0 mi North - - N/A   Haze
4:35 PM 55.4 °F 39.2 °F 54% 30.18 in 3.0 mi North - - N/A   Haze
4:55 PM 55.4 °F 39.2 °F 54% 30.18 in 2.5 mi North - - N/A   Haze
5:15 PM 53.6 °F 39.2 °F 58% 30.19 in 5.0 mi North - - N/A   Haze
5:35 PM 50.0 °F 41.0 °F 71% 30.20 in 4.0 mi North - - N/A   Haze
5:55 PM 48.2 °F 39.2 °F 71% 30.20 in 4.0 mi North - - N/A   Haze
6:15 PM 48.2 °F 39.2 °F 71% 30.20 in 4.0 mi North - - N/A   Haze
6:55 PM 44.6 °F 39.2 °F 81% 30.21 in 4.0 mi North - - N/A   Haze
7:15 PM 44.6 °F 39.2 °F 81% 30.20 in 3.0 mi North - - N/A   Partly Cloudy
7:35 PM 41.0 °F 39.2 °F 93% 30.21 in 3.0 mi North - - N/A   Clear
7:55 PM 41.0 °F 37.4 °F 87% 30.21 in 3.0 mi North - - N/A   Clear
8:15 PM 41.0 °F 39.2 °F 93% 30.21 in 3.0 mi North - - N/A   Clear
8:35 PM 41.0 °F 37.4 °F 87% 30.22 in 3.0 mi North - - N/A   Clear
8:55 PM 39.2 °F 37.4 °F 93% 30.21 in 3.0 mi North - - N/A   Clear
9:15 PM 39.2 °F 37.4 °F 93% 30.22 in 3.0 mi North - - N/A   Clear
9:35 PM 39.2 °F 37.4 °F 93% 30.22 in 3.0 mi North - - N/A   Clear
9:55 PM 37.4 °F 35.6 °F 93% 30.22 in 3.0 mi North - - N/A   Clear
10:15 PM 37.4 °F 37.4 °F 100% 30.22 in 2.5 mi North - - N/A   Clear
10:55 PM 37.4 °F 35.6 °F 93% 30.22 in 2.5 mi North - - N/A   Clear
11:15 PM 37.4 °F 35.6 °F 93% 30.22 in 2.5 mi North - - N/A   Clear
11:55 PM 35.6 °F 33.8 °F 93% 30.22 in 2.5 mi North - - N/A   Clear